Location: Ostrava
(49.8330°N, 18.2830°E)
Time: 22:29:31
(UTC+02:00)

Cosmos 2221 - Visible Passes

Search period start: 28 September 2016 00:00
Search period end: 08 October 2016 00:00
Orbit: 593 x 618 km, 82.5° (Epoch: 28 September)

Date Brightness Start Highest point End Pass type
(mag) Time Alt. Az. Time Alt. Az. Time Alt. Az.
28 Sep 4.3 20:17:15 17° NE 20:17:15 17° NE 20:18:46 10° NE visible
28 Sep 4.3 21:54:06 30° NNW 21:54:06 30° NNW 21:56:46 10° N visible
29 Sep 3.7 20:29:54 27° NE 20:29:54 27° NE 20:32:19 10° NNE visible
29 Sep 4.7 22:06:44 24° NW 22:06:44 24° NW 22:09:39 10° NNW visible
30 Sep 3.0 20:42:25 46° NE 20:42:25 46° NE 20:45:41 10° NNE visible
30 Sep 5.1 22:19:14 17° WNW 22:19:26 17° WNW 22:22:18 10° NNW visible
01 Oct 4.4 19:17:53 11° ENE 19:17:53 11° ENE 19:19:03 10° ENE visible
01 Oct 2.5 20:54:42 83° NW 20:54:42 83° NW 20:58:55 10° N visible
01 Oct 5.6 22:31:31 10° W 22:32:55 11° WNW 22:34:20 10° NW visible
02 Oct 3.9 19:29:49 17° E 19:30:37 18° E 19:33:31 10° NE visible
02 Oct 3.2 21:06:36 39° SW 21:07:48 53° WNW 21:12:03 10° N visible
03 Oct 3.4 19:40:31 13° SE 19:43:36 27° E 19:47:16 10° NNE visible
03 Oct 4.1 21:17:09 10° SW 21:21:05 33° WNW 21:25:02 10° N visible
04 Oct 5.8 05:43:09 10° NE 05:44:53 12° ENE 05:46:37 10° E visible
04 Oct 2.8 19:52:34 10° SSE 19:56:39 43° E 20:00:45 10° NNE visible
04 Oct 4.9 21:31:03 10° WSW 21:34:27 22° WNW 21:37:52 10° NNW visible
05 Oct 5.5 05:55:22 10° NNE 05:58:21 18° ENE 06:01:20 10° ESE visible
05 Oct 2.4 20:05:29 10° S 20:09:46 70° E 20:14:04 10° NNE visible
05 Oct 5.4 21:45:24 10° W 21:47:53 15° WNW 21:50:23 10° NNW visible
06 Oct 4.9 06:08:04 10° N 06:11:45 27° ENE 06:15:24 10° SE visible
06 Oct 4.2 18:43:57 10° ESE 18:45:57 13° E 18:47:58 10° NE visible
06 Oct 2.7 20:18:38 10° SSW 20:22:57 73° WNW 20:27:16 10° N visible
07 Oct 4.0 06:20:59 10° N 06:25:04 42° ENE 06:29:07 10° SE visible
07 Oct 3.7 18:55:44 10° SE 18:58:54 20° E 19:02:05 10° NE visible
07 Oct 3.6 20:32:03 10° SSW 20:36:12 45° WNW 20:40:21 10° N visible
